Home   Weather   Guadalajara   Past weeks

Flag for Mexico Past Weather in Guadalajara, Jalisco, Mexico — Yesterday and Last 2 Weeks

Now
72 °F

Heavy rain. Cloudy.


Feels Like: 75 °F
Forecast: N/A
Wind: 10 mph from West

Location: Don Miguel / Guadalaj

Current Time: Sep 28, 2016 at 5:22:28 PM

Latest Report: Sep 28, 2016 at 4:54 PM


Visibility: 0 mi

Pressure: 30.13 "Hg (25.20 "Hg at 1543m altitude)

Humidity: 69%

Dew Point: 61 °F

Location of GuadalajaraLocation

Past Weather in Guadalajara — Graph

°F

Guadalajara Temperature Yesterday

Maximum temperature yesterday: 79 °F (at 1:49 PM)
Minimum temperature yesterday: 59 °F (at 2:59 AM)
Average temperature yesterday: 68 °F

High & Low Weather Summary for the Past Weeks

 TemperatureHumidityPressure
High84 °F (Sep 13, 3:50 PM)94% (Sep 16, 1:50 AM)30.28 "Hg (Sep 16, 1:50 AM)
Low57 °F (Sep 21, 7:51 AM)34% (Sep 22, 2:46 PM)29.70 "Hg (Sep 26, 3:50 PM)
Average70 °F68%30.05 "Hg
* Reported Sep 13 3:50 PM — Sep 28 3:49 PM, Guadalajara, Weather by CustomWeather, © 2016

Note: Actual official high and low records may vary slightly from our data, if they occured in-between our weather recording intervals... More about our weather records

Advertising

Guadalajara Weather History for the Previous 24 Hours

Scroll right to see more
 ConditionsComfort  
Time TempWeatherWind HumidityBarometerVisibility
3:49 PM
Wed, Sep 28
77 °FPartly sunny.12 mph54%29.76 "Hg10 mi
2:50 PM79 °FPartly sunny.9 mph48%30.15 "Hg10 mi
1:47 PM77 °FPartly sunny.7 mph57%30.18 "Hg10 mi
12:53 PM73 °FPartly sunny.5 mph61%29.88 "Hg10 mi
11:55 AM72 °FPartly sunny.3 mph69%30.23 "Hg10 mi
10:54 AM70 °FBroken clouds.No wind69%30.23 "Hg10 mi
9:47 AM64 °FBroken clouds.No wind78%30.21 "Hg10 mi
8:50 AM64 °FBroken clouds.No wind88%30.20 "Hg8 mi
7:51 AM61 °FScattered clouds.No wind94%30.18 "Hg8 mi
5:48 AM61 °FPassing clouds.2 mph94%30.15 "Hg8 mi
3:46 AM61 °FPassing clouds.No wind94%29.82 "Hg6 mi
11:44 PM
Tue, Sep 27
61 °FMostly cloudy.6 mph94%30.18 "Hg7 mi
10:48 PM68 °FPartly cloudy.14 mph83%30.15 "Hg8 mi
8:50 PM70 °FPartly cloudy.No wind78%30.08 "Hg10 mi
7:46 PM70 °FPartly cloudy.No wind78%30.06 "Hg10 mi
6:50 PM72 °FBroken clouds.5 mph73%29.74 "Hg10 mi
5:49 PM77 °FBroken clouds.10 mph57%30.02 "Hg10 mi
Weather by CustomWeather, © 2016

See weather overviewHow to use our weather pages